Regional Weather Roundup
Issued by NWS

Home | Current Version | Previous Version | Graphics & Text | Print | Product List | Glossary On
Versions: 1 2 3 4 5 6 7 8 9 10 11 12 13 14 15 16 17 18 19 20 21 22 23 24 25 26 27 28 29 30 31 32 33 34 35 36 37 38 39 40 41 42 43 44 45 46 47 48 49 50
534
ASUS43 KOAX 250202
RWRNE

WEATHER ROUNDUP FOR NEBRASKA
NATIONAL WEATHER SERVICE OMAHA NE
900 PM CDT SUN SEP 24 2017

NOTES: SATELLITE DATA IS BEING USED TO AUGMENT CLOUD COVER ABOVE
       12000 FEET.
       "FAIR" INDICATES FEW OR NO CLOUDS BELOW 12,000 FEET WITH NO
       SIGNIFICANT WEATHER AND/OR OBSTRUCTIONS TO VISIBILITY.


NEZ001>004-019>022-054>056-250300-
NEBRASKA PANHANDLE

CITY           SKY/WX    TMP DP  RH WIND       PRES   REMARKS
SCOTTSBLUFF    CLOUDY    49  45  86 NE9       30.05R
ALLIANCE       CLOUDY    47  44  90 NE7       30.05R
CHADRON        CLOUDY    49  42  77 NE6       30.08R
GORDON         CLOUDY    48  44  85 N12G17    30.07R
KIMBALL        CLOUDY    47  47  99 NE8       30.04R FOG
SIDNEY         CLOUDY    49  47  93 NE12      30.02R
$$

NEZ057>060-069>072-079>082-250300-
SOUTHWEST NEBRASKA

CITY           SKY/WX    TMP DP  RH WIND       PRES   REMARKS
NORTH PLATTE   CLOUDY    53  52  96 NE9       30.01R
IMPERIAL       LGT RAIN  52  49  89 NE13      29.99R
LEXINGTON      RAIN      56  54  92 NE7       29.99R
MCCOOK         CLOUDY    55  55 100 NE9       29.97R
OGALLALA       CLOUDY    54  50  87 NE9       30.02S
$$

NEZ005>010-023>029-035>040-094-250300-
NORTH CENTRAL NEBRASKA

CITY           SKY/WX    TMP DP  RH WIND       PRES   REMARKS
VALENTINE      CLOUDY    53  47  79 N10       30.05R
AINSWORTH      CLOUDY    51  49  93 N9        30.04R
BROKEN BOW     RAIN      54  51  90 N13G21    29.99R
O`NEILL        CLOUDY    54  53  96 N9        30.02R
ORD            LGT RAIN  55  51  86 N5        30.00R
THEDFORD       CLOUDY    52  49  89 N6        30.04R
$$

NEZ041-046>049-061>064-073>077-083>087-250300-
SOUTH CENTRAL NEBRASKA

CITY           SKY/WX    TMP DP  RH WIND       PRES   REMARKS
GRAND ISLAND   LGT RAIN  57  57 100 N8        29.97S
AURORA         CLOUDY    57  57  98 N12G17    29.96S
HASTINGS       CLOUDY    58  56  93 NE12      29.96R
HEBRON         LGT RAIN  66  63  89 N6        29.94R
HOLDREGE       CLOUDY    56  54  93 N14       29.97R
KEARNEY        CLOUDY    56  55  97 N13       29.98
YORK           LGT RAIN  59  59 100 N10       29.98R
$$

NEZ011>018-030>034-042>045-250300-
NORTHEAST NEBRASKA

CITY           SKY/WX    TMP DP  RH WIND       PRES   REMARKS
NORFOLK        CLOUDY    56  55  97 N10       29.99R
ALBION         HVY RAIN  57  55  92 N6        29.99R
BLAIR          MOCLDY    67  64  90 N14       29.92R
COLUMBUS       CLOUDY    59  57  93 N9        29.98R
FREMONT        CLOUDY    66  59  77 NW12      29.95R
TEKAMAH        PTCLDY    66  61  84 NW7       29.93R
WAYNE          LGT RAIN  57  55  91 N8        30.00R
$$

NEZ050>053-065>068-078-088>093-250300-
SOUTHEAST NEBRASKA

CITY           SKY/WX    TMP DP  RH WIND       PRES   REMARKS
LINCOLN        LGT RAIN  68  64  87 N13       29.92S
OMAHA EPPLEY   CLOUDY    70  64  81 N12       29.91R
BEATRICE       CLOUDY    70  67  88 N12       29.92R
FALLS CITY     CLEAR     75  65  70 SE7       29.89R
NEBRASKA CITY  PTCLDY    73  69  87 S7        29.90R
PLATTSMOUTH    PTCLDY    75  65  71 SE3       29.90R
$$

NEZ044-045-051>053-067-250300-
OMAHA AREA

CITY           SKY/WX    TMP DP  RH WIND       PRES   REMARKS
OMAHA EPPLEY   CLOUDY    70  64  81 N12       29.91R
BLAIR          MOCLDY    67  64  90 N14       29.92R
FREMONT        CLOUDY    66  59  77 NW12      29.95R
MILLARD        CLOUDY    73  67  83 NW8       29.91R
OFFUTT AFB     MOCLDY    74  68  80 N6        29.89R
PLATTSMOUTH    PTCLDY    75  65  71 SE3       29.90R
WAHOO          CLOUDY    67  60  78 N12G17    29.94R
$$




USA.gov is the U.S. government's official web portal to all federal, state and local government web resources and services.